Погода в Мегрозере

Россия / Республика Карелия     61°01′53″N   33°29′16″E
темп.,
°C
ветер,
м/с
пор.,
м/с
влажн.,
%
обл.,
%
осадки,
мм/ч
давл.,
гПа
погр.,
м
18 мая, вт
вт1800:00+15вюв4138098 0.0 1010396
03:00+14в41289100 0.3 1009366
06:00+16вюв41189100 0.1 1007412
09:00+22юв5106899 0.1 1007613
12:00+26ююв51050100 0.0 10061544
15:00+28ююв5104216 0.0 10052565
18:00+27ююв5124194 0.0 10041704
21:00+19всв1173100 0.0 100631
19 мая, ср
ср1900:00+19юв4156897 0.0 1006476
03:00+16вюв312845 0.0 1006288
06:00+17юв4137964 0.0 1006421
09:00+23юв510565 0.0 1005599
12:00+28юв616413 0.0 10042605
15:00+29юв7173638 0.0 10023320
18:00+25ю414480 0.0 10032585
21:00+21ююв4125725 0.1 1004700
20 мая, чт
чт2000:00+16юв210885 0.4 1005231
03:00+14юв249452 0.4 100579
06:00+16юв2789100 0.0 1005277
09:00+19ююв477199 0.1 1005832
12:00+22ююз2657100 0.4 10041561
15:00+20ююз147965 2.1 1003405
18:00+18ююв41186100 8.6 1000635
21:00+14ююз389749 9.6 1001403
21 мая, пт
пт2100:00+10ююз3798100 0.0 1002255
03:00+8зюз41097100 0.4 1003414
06:00+8зюз4119688 0.6 1005500
09:00+10зюз478494 0.6 1007552
12:00+12юз587159 0.0 1009879
15:00+15зюз59475 0.0 10091784
18:00+15зюз494695 0.0 10092049
21:00+10зюз311675 0.0 1010457
22 мая, сб
сб2200:00+6ююз29895 0.0 1011217
03:00+5юз210921 0.1 1013252
06:00+7юз39823 0.0 1014332
09:00+12юз48568 0.0 10151204
12:00+15юз4750100 0.0 10151610
15:00+12зюз2673100 0.2 1015476
18:00+14ю3866100 0.6 10141073
21:00+12ююв31080100 0.9 1013282